sat.trackr.live / text

‹ back to catalog

UNKNOWN

NORAD 89494

UNKNOWN UNKNOWN UNKNOWN

§ Identity

Operator
Country
Launch date
Launch site
Launch vehicle
Mass (kg)
RCS (m²)

External: N2YO · Heavens-Above

§ Orbital elements

Epoch: 2026-05-23T15:41:28.325184Z

Period
101.62 min
Inclination
99.0129°
Eccentricity
0.0079074
Mean motion
14.17095338 rev/d
Perigee alt
778.2 km
Apogee alt
892.2 km
Semi-major
7,213.3 km
B*
7.7979e-4
RAAN
219.5933°
Arg perigee
300.1994°
Mean anomaly
59.1365°
Rev number
48,672

§ Raw data

UNKNOWN1 89494U          26143.65380006  .00001572  00000+0  77979-3 0  99942 89494  99.0129 219.5933 0079074 300.1994  59.1365 14.17095338486728

JSON: /api/v1/satellites/89494 · /tle

For live sub-satellite position, see the globe view (requires WebGL).

§ Visibility from observer

Set your observer location to see the next 7 days of passes ≥ 10°. The values pass through the URL so the page stays shareable.

No JS? Fill the form by hand. The geolocation button needs JavaScript.